Вернуться в каталог

TIMATION 2

АктивенНавигацияLEO
NORAD 4257·PAYLOAD·🇺🇸 United States

Запущен Sep 30, 1969 с Vandenberg Space Force Base

Loading…

Ближайшие Пролёты (ближайшие 24 часа)

TLE

СвежийSource: Space-Track

Эпоха: Sep 14, 2026, 10:52 UTC

1 04257U 69082C   26257.45323098  .00000026  00000-0  56897-4 0  9996
2 04257  70.0123 260.7294 0020570 357.9527  75.4575 13.96395779899115

Отслеживайте TIMATION 2 в реальном времени с AllMySat

Download on the App Store